AZU2804 SEQM-SBRB

Flight info

Callsign AZU2804
Flight time N/A
Altitude 35000
Route VURIS3 VURIS DCT TERAS UM776 IQT DCT DAMDU UN420 EGBAK
Aircraft A320/M-SDE3FGHIRWY/LB1

Departure

Time 2026-04-28 21:40
Airport Mariscal Sucre International Airport (SEQM)

Arrival

Time N/A
Airport Rio Branco-Plácido de Castro International Airport (SBRB)
Time Latitude Longitude Altitude Speed Heading
2026-04-28 21:06 -0.12369 -78.35932 7838 ft 0 kts 267°
2026-04-28 21:19 -0.12369 -78.35924 7837 ft 3 kts 267°
2026-04-28 21:19 -0.12368 -78.35906 7841 ft 3 kts 267°
2026-04-28 21:19 -0.12367 -78.35887 7840 ft 3 kts 267°
2026-04-28 21:19 -0.12367 -78.35868 7840 ft 2 kts 262°
2026-04-28 21:20 -0.12367 -78.35867 7840 ft 0 kts 255°
2026-04-28 21:27 -0.12370 -78.35869 7841 ft 2 kts 221°
2026-04-28 21:27 -0.12396 -78.35853 7842 ft 4 kts 148°
2026-04-28 21:27 -0.12445 -78.35840 7845 ft 15 kts 174°
2026-04-28 21:27 -0.12602 -78.35832 7846 ft 26 kts 175°
2026-04-28 21:28 -0.12693 -78.35771 7844 ft 12 kts 96°
2026-04-28 21:28 -0.12691 -78.35712 7850 ft 5 kts 88°
2026-04-28 21:28 -0.12691 -78.35709 7851 ft 0 kts 97°
2026-04-28 21:28 -0.12692 -78.35702 7852 ft 5 kts 97°
2026-04-28 21:29 -0.12699 -78.35652 7860 ft 11 kts 101°
2026-04-28 21:29 -0.12748 -78.35600 7867 ft 11 kts 172°
2026-04-28 21:29 -0.12811 -78.35595 7869 ft 11 kts 176°
2026-04-28 21:29 -0.12923 -78.35590 7873 ft 17 kts 178°
2026-04-28 21:30 -0.13022 -78.35587 7877 ft 12 kts 178°
2026-04-28 21:30 -0.13132 -78.35584 7883 ft 21 kts 178°
2026-04-28 21:30 -0.13267 -78.35577 7887 ft 18 kts 176°
2026-04-28 21:30 -0.13412 -78.35572 7889 ft 27 kts 177°
2026-04-28 21:31 -0.13605 -78.35564 7895 ft 25 kts 178°
2026-04-28 21:31 -0.13765 -78.35557 7900 ft 21 kts 178°
2026-04-28 21:31 -0.13900 -78.35552 7901 ft 18 kts 178°
2026-04-28 21:31 -0.14006 -78.35547 7908 ft 13 kts 177°
2026-04-28 21:32 -0.14072 -78.35543 7915 ft 6 kts 177°
2026-04-28 21:32 -0.14128 -78.35540 7917 ft 14 kts 177°
2026-04-28 21:32 -0.14228 -78.35513 7924 ft 12 kts 141°
2026-04-28 21:32 -0.14237 -78.35503 7920 ft 0 kts 131°
2026-04-28 21:36 -0.14238 -78.35502 7919 ft 3 kts 124°
2026-04-28 21:37 -0.14251 -78.35438 7918 ft 10 kts 90°
2026-04-28 21:37 -0.14230 -78.35380 7918 ft 10 kts 38°
2026-04-28 21:37 -0.14199 -78.35372 7916 ft 0 kts
2026-04-28 21:38 -0.14195 -78.35372 7917 ft 1 kts
2026-04-28 21:38 -0.14186 -78.35372 7918 ft 0 kts
2026-04-28 21:39 -0.14169 -78.35372 7919 ft 16 kts 360°
2026-04-28 21:39 -0.13839 -78.35385 7904 ft 78 kts 358°
2026-04-28 21:39 -0.13093 -78.35415 7883 ft 137 kts 358°
2026-04-28 21:40 -0.11973 -78.35466 7925 ft 174 kts 357°
2026-04-28 21:40 -0.10802 -78.35523 8525 ft 165 kts 356°
2026-04-28 21:40 -0.09662 -78.35586 9018 ft 165 kts 356°
2026-04-28 21:40 -0.08503 -78.35661 9397 ft 167 kts 355°
2026-04-28 21:41 -0.07319 -78.35724 9711 ft 176 kts 358°
2026-04-28 21:41 -0.06056 -78.35758 9944 ft 188 kts 358°
2026-04-28 21:41 -0.04707 -78.35797 10172 ft 200 kts 358°
2026-04-28 21:41 -0.03271 -78.35847 10396 ft 213 kts 357°
2026-04-28 21:42 -0.01746 -78.35905 10589 ft 227 kts 357°
2026-04-28 21:42 -0.00112 -78.35972 10778 ft 241 kts 357°
2026-04-28 21:42 0.01610 -78.36045 10891 ft 262 kts 356°
2026-04-28 21:42 0.03455 -78.36340 11190 ft 274 kts 339°
2026-04-28 21:43 0.05072 -78.37349 11678 ft 278 kts 312°
2026-04-28 21:43 0.05964 -78.38803 12189 ft 280 kts 287°
2026-04-28 21:43 0.06119 -78.40728 12802 ft 282 kts 258°
2026-04-28 21:43 0.05332 -78.42509 13444 ft 284 kts 230°
2026-04-28 21:44 0.03778 -78.43713 14026 ft 287 kts 202°
2026-04-28 21:44 0.01804 -78.44022 14553 ft 292 kts 173°
2026-04-28 21:44 -0.00113 -78.43358 15100 ft 295 kts 151°
2026-04-28 21:44 -0.01868 -78.42276 15699 ft 298 kts 147°
2026-04-28 21:45 -0.03602 -78.41125 16262 ft 301 kts 147°
2026-04-28 21:45 -0.05355 -78.39964 16773 ft 304 kts 147°
2026-04-28 21:45 -0.07129 -78.38801 16964 ft 305 kts 147°
2026-04-28 21:45 -0.08908 -78.37645 17004 ft 305 kts 147°
2026-04-28 21:46 -0.10672 -78.36505 17224 ft 308 kts 147°
2026-04-28 21:46 -0.12432 -78.35255 17727 ft 313 kts 138°
2026-04-28 21:46 -0.13997 -78.33674 17987 ft 327 kts 132°
2026-04-28 21:46 -0.15521 -78.31928 18222 ft 340 kts 131°
2026-04-28 21:47 -0.17090 -78.30100 18444 ft 352 kts 131°
2026-04-28 21:47 -0.18719 -78.28207 18648 ft 364 kts 131°
2026-04-28 21:47 -0.20396 -78.26267 18833 ft 373 kts 131°
2026-04-28 21:47 -0.22095 -78.24306 19008 ft 382 kts 131°
2026-04-28 21:48 -0.23279 -78.22941 19116 ft 388 kts 131°
2026-04-28 21:48 -0.25069 -78.20880 19273 ft 396 kts 131°
2026-04-28 21:48 -0.27513 -78.18067 19466 ft 406 kts 131°
2026-04-28 21:48 -0.29381 -78.15919 19602 ft 413 kts 131°
2026-04-28 21:49 -0.31251 -78.13767 19832 ft 417 kts 131°
2026-04-28 21:49 -0.33162 -78.11570 20104 ft 419 kts 131°
2026-04-28 21:49 -0.35159 -78.09440 20411 ft 421 kts 139°
2026-04-28 21:49 -0.36746 -78.08256 20637 ft 421 kts 150°
2026-04-28 21:50 -0.39406 -78.07165 21028 ft 420 kts 167°
2026-04-28 21:50 -0.42313 -78.06929 21320 ft 422 kts 184°
2026-04-28 21:50 -0.45238 -78.07254 21582 ft 425 kts 188°
2026-04-28 21:50 -0.48170 -78.07695 21890 ft 426 kts 189°
2026-04-28 21:51 -0.51109 -78.08146 22174 ft 429 kts 189°
2026-04-28 21:51 -0.54069 -78.08593 22456 ft 431 kts 189°
2026-04-28 21:51 -0.57043 -78.09035 22728 ft 433 kts 188°
2026-04-28 21:51 -0.60036 -78.09474 22965 ft 436 kts 188°
2026-04-28 21:52 -0.63048 -78.09914 23242 ft 438 kts 188°
2026-04-28 21:52 -0.66077 -78.10355 23509 ft 440 kts 188°
2026-04-28 21:52 -0.68680 -78.10734 23747 ft 442 kts 188°
2026-04-28 21:52 -0.71721 -78.11176 24056 ft 443 kts 188°
2026-04-28 21:53 -0.74785 -78.11621 24410 ft 444 kts 188°
2026-04-28 21:53 -0.77796 -78.12058 24789 ft 444 kts 188°
2026-04-28 21:53 -0.80859 -78.12502 25036 ft 447 kts 188°
2026-04-28 21:53 -0.82291 -78.12710 25146 ft 448 kts 188°
2026-04-28 21:54 -0.83728 -78.12918 25298 ft 449 kts 188°
2026-04-28 21:55 -0.85181 -78.13129 25493 ft 449 kts 188°
2026-04-28 21:55 -0.88279 -78.13578 25825 ft 450 kts 188°
2026-04-28 21:55 -0.91390 -78.14029 26046 ft 454 kts 188°
2026-04-28 21:55 -0.94525 -78.14484 26305 ft 456 kts 188°
2026-04-28 21:56 -0.97638 -78.14893 26563 ft 458 kts 185°
2026-04-28 21:56 -1.00826 -78.14967 26840 ft 460 kts 176°
2026-04-28 21:56 -1.04006 -78.14519 27133 ft 462 kts 167°
2026-04-28 21:56 -1.07057 -78.13527 27529 ft 462 kts 157°
2026-04-28 21:57 -1.09890 -78.12030 27966 ft 461 kts 147°
2026-04-28 21:57 -1.12427 -78.10073 28288 ft 462 kts 137°
2026-04-28 21:57 -1.14602 -78.07692 28444 ft 467 kts 127°
2026-04-28 21:57 -1.16340 -78.04934 28704 ft 469 kts 117°
2026-04-28 21:58 -1.17725 -78.01984 29010 ft 469 kts 113°
2026-04-28 21:58 -1.18967 -77.98974 29457 ft 466 kts 111°
2026-04-28 21:58 -1.20134 -77.95960 29968 ft 462 kts 111°
2026-04-28 21:58 -1.21269 -77.92966 30410 ft 460 kts 111°
2026-04-28 21:59 -1.27207 -77.77611 32134 ft 457 kts 111°
2026-04-28 21:59 -1.36422 -77.54413 34265 ft 452 kts 111°
2026-04-28 21:59 -1.39684 -77.46131 34902 ft 451 kts 111°
2026-04-28 22:00 -1.45760 -77.30762 35016 ft 446 kts 111°
2026-04-28 22:00 -1.55021 -77.07322 34984 ft 449 kts 111°
2026-04-28 22:01 -1.64075 -76.84398 35003 ft 447 kts 111°
2026-04-28 22:01 -1.75152 -76.56338 34962 ft 448 kts 111°
2026-04-28 22:02 -1.85773 -76.29422 34999 ft 448 kts 111°
2026-04-28 22:02 -1.96536 -76.02134 35000 ft 449 kts 111°
2026-04-28 22:02 -2.01579 -75.90750 34986 ft 446 kts 126°
2026-04-28 22:03 -2.08865 -75.80756 35003 ft 446 kts 114°
2026-04-28 22:03 -2.13195 -75.72848 35014 ft 445 kts 135°
2026-04-28 22:03 -2.22367 -75.64515 34981 ft 446 kts 120°
2026-04-28 22:03 -2.23848 -75.52586 34986 ft 446 kts 92°
2026-04-28 22:04 -2.29981 -75.42752 35009 ft 441 kts 158°
2026-04-28 22:04 -2.41682 -75.38954 35007 ft 446 kts 146°
2026-04-28 22:04 -2.44835 -75.35529 35001 ft 444 kts 117°
2026-04-28 22:04 -2.45911 -75.32648 35000 ft 443 kts 103°
2026-04-28 22:05 -2.46570 -75.29631 35002 ft 445 kts 103°
2026-04-28 22:05 -2.48447 -75.23722 35002 ft 447 kts 114°
2026-04-28 22:06 -2.51430 -75.18277 35001 ft 447 kts 123°
2026-04-28 22:06 -2.54928 -75.13131 35005 ft 447 kts 125°
2026-04-28 22:07 -2.74652 -74.84598 34927 ft 448 kts 124°
2026-04-28 22:07 -3.02771 -74.43595 35060 ft 446 kts 124°
2026-04-28 22:08 -3.25316 -74.10675 34906 ft 450 kts 124°
2026-04-28 22:08 -3.39370 -73.90137 35059 ft 445 kts 124°
2026-04-28 22:08 -3.53065 -73.70112 35016 ft 445 kts 124°
2026-04-28 22:08 -3.66253 -73.54749 34643 ft 349 kts 125°
2026-04-28 22:09 -3.67583 -73.52780 35172 ft 345 kts 124°
2026-04-28 22:09 -3.68931 -73.50768 34793 ft 346 kts 123°
2026-04-28 22:09 -3.70273 -73.48739 34444 ft 360 kts 123°
2026-04-28 22:09 -3.71637 -73.46678 34229 ft 349 kts 123°
2026-04-28 22:10 -3.72916 -73.44751 35030 ft 313 kts 124°
2026-04-28 22:10 -3.75370 -73.41108 35018 ft 318 kts 124°
2026-04-28 22:11 -3.77902 -73.37456 34923 ft 321 kts 125°
2026-04-28 22:11 -3.80510 -73.33762 34433 ft 340 kts 126°
2026-04-28 22:11 -3.81941 -73.31781 34023 ft 353 kts 126°
2026-04-28 22:12 -3.83390 -73.29835 34209 ft 351 kts 127°
2026-04-28 22:12 -3.84855 -73.27879 34325 ft 351 kts 127°
2026-04-28 22:12 -3.86306 -73.25917 34470 ft 350 kts 127°
2026-04-28 22:12 -3.87752 -73.23957 34615 ft 348 kts 127°
2026-04-28 22:13 -3.89184 -73.22014 34757 ft 346 kts 127°
2026-04-28 22:13 -3.90355 -73.20226 34884 ft 343 kts 118°
2026-04-28 22:13 -3.91286 -73.18448 35070 ft 338 kts 117°
2026-04-28 22:13 -3.92334 -73.16366 35305 ft 331 kts 116°
2026-04-28 22:14 -3.93227 -73.14535 35397 ft 330 kts 116°
2026-04-28 22:14 -3.94255 -73.12381 34579 ft 359 kts 115°
2026-04-28 22:14 -3.95330 -73.10082 34448 ft 365 kts 115°
2026-04-28 22:14 -3.96427 -73.07716 34056 ft 378 kts 115°
2026-04-28 22:15 -3.97466 -73.05474 35215 ft 332 kts 115°
2026-04-28 22:15 -3.98391 -73.03483 36017 ft 311 kts 115°
2026-04-28 22:15 -3.99306 -73.01529 35505 ft 310 kts 115°
2026-04-28 22:15 -4.00244 -72.99546 34528 ft 328 kts 115°
2026-04-28 22:16 -4.01298 -72.97291 33306 ft 370 kts 115°
2026-04-28 22:16 -4.02329 -72.95048 34320 ft 327 kts 115°
2026-04-28 22:16 -4.03170 -72.93203 35944 ft 263 kts 115°
2026-04-28 22:16 -4.03907 -72.91586 36106 ft 259 kts 115°
2026-04-28 22:17 -4.04720 -72.89814 34629 ft 308 kts 115°
2026-04-28 22:17 -4.05682 -72.87730 33583 ft 343 kts 115°
2026-04-28 22:17 -4.06668 -72.85610 33964 ft 326 kts 115°
2026-04-28 22:17 -4.07617 -72.83595 34411 ft 315 kts 115°
2026-04-28 22:18 -4.08542 -72.81662 34686 ft 297 kts 116°
2026-04-28 22:18 -4.09438 -72.79826 34654 ft 294 kts 116°
2026-04-28 22:18 -4.10363 -72.77978 34411 ft 301 kts 117°
2026-04-28 22:18 -4.11334 -72.76023 33703 ft 324 kts 116°
2026-04-28 22:19 -4.12301 -72.73993 33869 ft 314 kts 115°
2026-04-28 22:19 -4.13169 -72.72097 34590 ft 285 kts 114°
2026-04-28 22:19 -4.13951 -72.70332 34818 ft 276 kts 114°
2026-04-28 22:19 -4.14727 -72.68530 34172 ft 286 kts 113°
2026-04-28 22:20 -4.15534 -72.66606 33310 ft 310 kts 112°
2026-04-28 22:20 -4.16349 -72.64616 33419 ft 303 kts 112°
2026-04-28 22:20 -4.17119 -72.62693 33708 ft 292 kts 112°
2026-04-28 22:20 -4.17896 -72.60827 33750 ft 290 kts 113°
2026-04-28 22:21 -4.18697 -72.58960 33622 ft 294 kts 114°
2026-04-28 22:21 -4.19523 -72.57077 33542 ft 295 kts 114°
2026-04-28 22:21 -4.20355 -72.55233 33581 ft 292 kts 115°
2026-04-28 22:21 -4.21202 -72.53413 33579 ft 288 kts 116°
2026-04-28 22:22 -4.22082 -72.51593 33431 ft 292 kts 116°
2026-04-28 22:22 -4.23003 -72.49768 33321 ft 294 kts 117°
2026-04-28 22:22 -4.23958 -72.47946 33280 ft 295 kts 118°
2026-04-28 22:22 -4.24931 -72.46124 33011 ft 306 kts 118°
2026-04-28 22:23 -4.26009 -72.44108 32031 ft 343 kts 118°
2026-04-28 22:23 -4.27173 -72.41933 31220 ft 374 kts 118°
2026-04-28 22:23 -4.28466 -72.39514 30469 ft 406 kts 118°
2026-04-28 22:24 -4.31174 -72.34447 30448 ft 420 kts 118°
2026-04-28 22:24 -4.32552 -72.31864 30675 ft 418 kts 118°
2026-04-28 22:24 -4.34210 -72.28291 31534 ft 406 kts 110°
2026-04-28 22:24 -4.38189 -72.17757 32713 ft 403 kts 114°
2026-04-28 22:25 -4.42915 -72.07612 33707 ft 400 kts 115°
2026-04-28 22:25 -4.47605 -71.97500 34484 ft 400 kts 115°
2026-04-28 22:25 -4.53318 -71.88007 35005 ft 403 kts 142°
2026-04-28 22:25 -4.62649 -71.81423 35016 ft 421 kts 135°
2026-04-28 22:26 -4.72388 -71.74705 35011 ft 439 kts 158°
2026-04-28 22:26 -4.81886 -71.67054 35007 ft 453 kts 122°
2026-04-28 22:26 -4.90473 -71.58497 35013 ft 440 kts 167°
2026-04-28 22:27 -5.10514 -71.49190 35006 ft 443 kts 105°
2026-04-28 22:27 -5.15514 -71.38252 35012 ft 444 kts 145°
2026-04-28 22:27 -5.27386 -71.35818 34996 ft 444 kts 175°
2026-04-28 22:27 -5.37093 -71.29286 35000 ft 443 kts 116°
2026-04-28 22:28 -5.43400 -71.18815 34981 ft 445 kts 148°
2026-04-28 22:28 -5.52684 -71.16883 34991 ft 442 kts 177°
2026-04-28 22:28 -5.55710 -71.16357 35011 ft 443 kts 164°
2026-04-28 22:29 -5.61526 -71.14285 35002 ft 445 kts 152°
2026-04-28 22:29 -5.72380 -71.06929 34999 ft 446 kts 144°
2026-04-28 22:30 -5.97059 -70.88940 35000 ft 447 kts 144°
2026-04-28 22:30 -6.17184 -70.74219 34998 ft 446 kts 144°
2026-04-28 22:31 -6.46295 -70.52902 35060 ft 445 kts 144°
2026-04-28 22:31 -6.57134 -70.44957 34923 ft 447 kts 144°
2026-04-28 22:31 -6.59653 -70.43109 34974 ft 447 kts 144°
2026-04-28 22:32 -6.70385 -70.35237 34995 ft 446 kts 144°
2026-04-28 22:32 -6.90453 -70.20505 35002 ft 446 kts 144°
2026-04-28 22:33 -7.10524 -70.05754 35001 ft 447 kts 144°
2026-04-28 22:33 -7.30635 -69.90959 34998 ft 447 kts 144°
2026-04-28 22:34 -7.50603 -69.76251 34999 ft 447 kts 144°
2026-04-28 22:34 -7.79122 -69.55216 35053 ft 446 kts 144°
2026-04-28 22:35 -8.07860 -69.33982 35000 ft 447 kts 144°
2026-04-28 22:35 -8.31044 -69.16824 35008 ft 447 kts 144°
2026-04-28 22:36 -8.36055 -69.13112 35000 ft 447 kts 144°
2026-04-28 22:36 -8.41064 -69.09400 35000 ft 446 kts 144°
2026-04-28 22:37 -8.45218 -69.06322 35000 ft 445 kts 144°
2026-04-28 22:37 -8.50459 -69.02435 34982 ft 416 kts 144°
2026-04-28 22:37 -8.59499 -68.95729 35007 ft 403 kts 144°
2026-04-28 22:37 -8.68753 -68.88860 35000 ft 419 kts 144°
2026-04-28 22:38 -8.78471 -68.81643 32636 ft 441 kts 144°
2026-04-28 22:38 -8.87974 -68.74579 31584 ft 411 kts 144°
2026-04-28 22:38 -8.97013 -68.67857 30083 ft 395 kts 144°
2026-04-28 22:38 -9.05698 -68.61394 28596 ft 380 kts 144°
2026-04-28 22:39 -9.13995 -68.55216 27133 ft 368 kts 144°
2026-04-28 22:39 -9.22096 -68.49179 25676 ft 356 kts 144°
2026-04-28 22:39 -9.29962 -68.43315 24261 ft 345 kts 144°
2026-04-28 22:39 -9.37583 -68.37631 22855 ft 335 kts 144°
2026-04-28 22:40 -9.44976 -68.32113 21457 ft 325 kts 144°
2026-04-28 22:40 -9.52158 -68.26750 20052 ft 316 kts 144°
2026-04-28 22:40 -9.57372 -68.22855 18992 ft 309 kts 144°